IRIDIUM 106 1 41917U 17003A 25349.95312811 .00000029 00000+0 32871-5 0 9992 2 41917 86.3985 165.1123 0002361 98.3753 261.7710 14.34217779466947 IRIDIUM 103 1 41918U 17003B 25349.94044008 .00000145 00000+0 44837-4 0 9995 2 41918 86.3986 165.0180 0001650 99.1902 260.9481 14.34214403466965 IRIDIUM 109 1 41919U 17003C 25349.94679160 .00000108 00000+0 31433-4 0 9996 2 41919 86.3988 165.0719 0001882 92.9309 267.2102 14.34220509466936 IRIDIUM 102 1 41920U 17003D 25349.91506998 .00000025 00000+0 18206-5 0 9995 2 41920 86.3987 165.0126 0001989 88.0323 272.1101 14.34217350467013 IRIDIUM 105 1 41921U 17003E 25349.88580624 .00000340 00000+0 11439-3 0 9999 2 41921 86.3979 133.5172 0001908 95.3505 264.7909 14.34219771468866 IRIDIUM 104 1 41922U 17003F 25349.92775459 .00000081 00000+0 21766-4 0 9994 2 41922 86.3986 165.0471 0001647 87.7814 272.3571 14.34218398467004 IRIDIUM 114 1 41923U 17003G 25349.93408965 .00000038 00000+0 66551-5 0 9995 2 41923 86.3986 165.0282 0001811 91.3971 268.7432 14.34216727466988 IRIDIUM 108 1 41924U 17003H 25349.89262258 .00000251 00000+0 82617-4 0 9991 2 41924 86.3974 133.4041 0002110 89.8083 270.3354 14.34216683468836 IRIDIUM 112 1 41925U 17003J 25349.92141265 .00000010 00000+0 -34363-5 0 9990 2 41925 86.3988 164.8843 0001741 87.1656 272.9739 14.34217348467008 IRIDIUM 111 1 41926U 17003K 25349.90872944 .00000047 00000+0 95937-5 0 9997 2 41926 86.3986 164.9560 0001964 94.0109 266.1312 14.34217808466980 IRIDIUM 113 1 42803U 17039A 25349.60962046 .00000002 00000+0 -62559-5 0 9997 2 42803 86.3966 38.8956 0001890 94.4296 265.7116 14.34217484444871 IRIDIUM 123 1 42804U 17039B 25349.72086827 .00000181 00000+0 57570-4 0 9998 2 42804 86.3967 70.3333 0002097 105.0441 255.0987 14.34216496443659 IRIDIUM 120 1 42805U 17039C 25349.88235339 .00000290 00000+0 96328-4 0 9995 2 42805 86.3962 38.5881 0002506 96.4407 263.7075 14.34217553444907 IRIDIUM 115 1 42806U 17039D 25349.87716864 .00000363 00000+0 10197-3 0 9992 2 42806 86.4498 38.6939 0002519 105.4653 254.6827 14.43276235447826 IRIDIUM 118 1 42807U 17039E 25349.75257715 .00000000 00000+0 -71503-5 0 9994 2 42807 86.3961 70.3189 0001851 96.6170 263.5237 14.34215208443658 IRIDIUM 117 1 42808U 17039F 25349.77160890 .00000264 00000+0 87212-4 0 9998 2 42808 86.3967 70.2704 0002041 102.0959 258.0466 14.34217296443681 IRIDIUM 126 1 42809U 17039G 25349.93651560 .00000306 00000+0 10217-3 0 9993 2 42809 86.3966 70.2496 0001915 100.0801 260.0611 14.34217899443686 IRIDIUM 124 1 42810U 17039H 25349.81098535 .00000361 00000+0 10136-3 0 9990 2 42810 86.4491 7.0232 0002327 97.2656 262.8809 14.43279276448660 IRIDIUM 128 1 42811U 17039J 25349.85748645 .00000011 00000+0 -30193-5 0 9999 2 42811 86.3966 101.8169 0002275 99.0755 261.0698 14.34217027443704 IRIDIUM 121 1 42812U 17039K 25349.74623911 -.00000060 00000+0 -28452-4 0 9995 2 42812 86.3962 70.3554 0002119 95.1272 265.0166 14.34217117443532 IRIDIUM 133 1 42955U 17061A 25349.81943999 .00000299 00000+0 99827-4 0 9993 2 42955 86.3969 101.9459 0002106 97.6899 262.4537 14.34218784428492 IRIDIUM 100 1 42956U 17061B 25349.81308516 -.00000004 00000+0 -85593-5 0 9996 2 42956 86.3966 101.8714 0001962 99.4956 260.6461 14.34215923428494 IRIDIUM 122 1 42957U 17061C 25349.85114140 .00000288 00000+0 95946-4 0 9993 2 42957 86.3968 101.8553 0001936 97.7719 262.3697 14.34215183428507 IRIDIUM 129 1 42958U 17061D 25349.80674427 .00000126 00000+0 38071-4 0 9995 2 42958 86.3967 101.9388 0001772 88.4181 271.7217 14.34217422428513 IRIDIUM 119 1 42959U 17061E 25349.91456916 .00000182 00000+0 57784-4 0 9993 2 42959 86.3969 101.8887 0001798 96.0835 264.0566 14.34216259428540 IRIDIUM 107 1 42960U 17061F 25349.86382845 .00000026 00000+0 21526-5 0 9991 2 42960 86.3974 101.9300 0002057 107.9112 252.2308 14.34216825428540 IRIDIUM 132 1 42961U 17061G 25349.87016817 .00000358 00000+0 12068-3 0 9993 2 42961 86.3971 101.9084 0002044 99.9672 260.1755 14.34216017428541 IRIDIUM 136 1 42962U 17061H 25349.83211495 .00000095 00000+0 26721-4 0 9999 2 42962 86.3970 101.9300 0001901 98.2197 261.9215 14.34216830428551 IRIDIUM 139 1 42963U 17061J 25349.83845799 .00000202 00000+0 65005-4 0 9998 2 42963 86.3971 101.9863 0002082 100.0382 260.1049 14.34216703428562 IRIDIUM 125 1 42964U 17061K 25349.82575024 .00000107 00000+0 31202-4 0 9995 2 42964 86.3975 102.0494 0001700 110.6725 249.4653 14.34212475428577 IRIDIUM 135 1 43070U 17083A 25349.86966146 .00000245 00000+0 80346-4 0 9997 2 43070 86.3966 38.6357 0002145 93.1101 267.0341 14.34214717417877 IRIDIUM 138 1 43071U 17083B 25349.89503658 -.00000012 00000+0 -11196-4 0 9997 2 43071 86.3974 38.2919 0001648 93.5896 266.5488 14.34217401417867 IRIDIUM 116 1 43072U 17083C 25349.86332459 -.00000084 00000+0 -37120-4 0 9998 2 43072 86.3957 38.6262 0002417 96.4225 263.7246 14.34216492417890 IRIDIUM 130 1 43073U 17083D 25349.90138300 .00000253 00000+0 83433-4 0 9997 2 43073 86.3975 38.8682 0002465 100.5881 259.5593 14.34219162417847 IRIDIUM 151 1 43074U 17083E 25349.87601005 -.00000024 00000+0 -15457-4 0 9990 2 43074 86.3960 38.6747 0002153 94.8069 265.3373 14.34217265417864 IRIDIUM 134 1 43075U 17083F 25349.84429560 .00000261 00000+0 86100-4 0 9996 2 43075 86.3969 38.6937 0002249 99.2402 260.9049 14.34214132417828 IRIDIUM 137 1 43076U 17083G 25349.85698286 .00000068 00000+0 17359-4 0 9996 2 43076 86.3971 38.7774 0002667 88.7618 271.3883 14.34217607417897 IRIDIUM 141 1 43077U 17083H 25349.85063937 .00000007 00000+0 -44281-5 0 9995 2 43077 86.3962 38.6212 0001915 97.0780 263.0634 14.34216901417890 IRIDIUM 153 1 43078U 17083J 25349.80281709 -.00000076 00000+0 -34184-4 0 9997 2 43078 86.3963 7.1314 0001753 97.0324 263.1071 14.34217556418995 IRIDIUM 131 1 43079U 17083K 25349.83795410 -.00000022 00000+0 -14943-4 0 9992 2 43079 86.3967 38.8000 0002028 94.0551 266.0877 14.34217385417825 IRIDIUM 144 1 43249U 18030A 25349.46031774 .00000013 00000+0 -25439-5 0 9991 2 43249 86.3961 7.2080 0002262 95.6308 264.5146 14.34217659403802 IRIDIUM 149 1 43250U 18030B 25349.95504031 .00000167 00000+0 52454-4 0 9993 2 43250 86.3968 6.9705 0002214 92.8159 267.3290 14.34217682403897 IRIDIUM 157 1 43251U 18030C 25349.76476296 .00000257 00000+0 84538-4 0 9992 2 43251 86.3971 7.0991 0002208 88.3186 271.8263 14.34216137403843 IRIDIUM 140 1 43252U 18030D 25349.78379000 .00000082 00000+0 22081-4 0 9991 2 43252 86.3968 7.1041 0002267 95.3242 264.8213 14.34217375403902 IRIDIUM 145 1 43253U 18030E 25349.77110136 .00000331 00000+0 11097-3 0 9995 2 43253 86.3967 7.0819 0002537 94.9468 265.2017 14.34215180403830 IRIDIUM 146 1 43254U 18030F 25349.96138023 .00000314 00000+0 10504-3 0 9995 2 43254 86.3969 7.0154 0002379 92.9528 267.1940 14.34212930403874 IRIDIUM 148 1 43255U 18030G 25349.79013267 .00000056 00000+0 13105-4 0 9993 2 43255 86.3969 7.1272 0002261 89.2023 270.9432 14.34216744403882 IRIDIUM 142 1 43256U 18030H 25349.75842085 .00000073 00000+0 18987-4 0 9990 2 43256 86.3966 7.0362 0002573 95.1201 265.0288 14.34217390403847 IRIDIUM 150 1 43257U 18030J 25349.79647098 .00000267 00000+0 88361-4 0 9990 2 43257 86.3967 7.1302 0002357 94.9585 265.1880 14.34214470403874 IRIDIUM 143 1 43258U 18030K 25349.77744600 .00000355 00000+0 11979-3 0 9994 2 43258 86.3972 7.2238 0002473 94.7949 265.3529 14.34215571403809 IRIDIUM 161 1 43478U 18047C 25349.92758631 .00000136 00000+0 34474-4 0 9995 2 43478 86.4506 165.0490 0001867 86.3513 273.7901 14.43280127398708 IRIDIUM 152 1 43479U 18047D 25349.88970092 -.00000050 00000+0 -25066-4 0 9992 2 43479 86.3986 164.9254 0001721 90.6931 269.4462 14.34217278396212 IRIDIUM 147 1 43480U 18047E 25349.89604258 .00000010 00000+0 -35138-5 0 9990 2 43480 86.3987 164.9248 0001899 86.6790 273.4623 14.34217338396213 IRIDIUM 110 1 43481U 18047F 25349.90238148 .00000093 00000+0 26320-4 0 9996 2 43481 86.3986 165.0090 0001585 80.3899 279.7476 14.34218241396201 IRIDIUM 162 1 43482U 18047G 25349.92128439 .00000154 00000+0 39673-4 0 9993 2 43482 86.4505 164.9450 0001825 98.3879 261.7529 14.43278415398696 IRIDIUM 160 1 43569U 18061A 25349.91799206 .00000290 00000+0 96326-4 0 9999 2 43569 86.3975 133.4244 0001894 86.7194 273.4218 14.34216083387103 IRIDIUM 166 1 43570U 18061B 25349.94336272 .00000171 00000+0 54097-4 0 9991 2 43570 86.3976 133.3665 0002139 91.8629 268.2812 14.34216695387139 IRIDIUM 158 1 43571U 18061C 25349.91164651 .00000340 00000+0 11431-3 0 9991 2 43571 86.3975 133.3899 0001845 98.2270 261.9135 14.34214996387099 IRIDIUM 165 1 43572U 18061D 25349.93701914 .00000020 00000+0 57840-7 0 9996 2 43572 86.3979 133.4220 0001957 91.3321 268.8099 14.34216688387127 IRIDIUM 155 1 43573U 18061E 25349.89896435 -.00000022 00000+0 -14938-4 0 9997 2 43573 86.3978 133.3163 0001950 99.1130 261.0286 14.34217072387085 IRIDIUM 154 1 43574U 18061F 25349.94970509 .00000155 00000+0 48341-4 0 9999 2 43574 86.3979 133.4193 0002065 92.3814 267.7618 14.34216818387149 IRIDIUM 163 1 43575U 18061G 25349.93067588 .00000148 00000+0 45743-4 0 9998 2 43575 86.3976 133.3485 0001834 94.4003 265.7403 14.34216193387119 IRIDIUM 156 1 43576U 18061H 25349.90530477 .00000172 00000+0 54510-4 0 9997 2 43576 86.3972 133.3665 0002121 97.5556 262.5881 14.34215214387100 IRIDIUM 164 1 43577U 18061J 25349.88627449 .00000127 00000+0 38412-4 0 9994 2 43577 86.3976 133.4113 0002175 90.5737 269.5708 14.34214212387143 IRIDIUM 159 1 43578U 18061K 25349.92433435 .00000280 00000+0 93027-4 0 9993 2 43578 86.3978 133.3361 0001961 90.0739 270.0682 14.34216535387114 IRIDIUM 180 1 43922U 19002A 25349.78429382 .00000048 00000+0 10158-4 0 9998 2 43922 86.3966 70.2686 0001964 94.2412 265.9008 14.34217385362707 IRIDIUM 176 1 43923U 19002B 25349.71416570 .00001037 00000+0 16055-3 0 9997 2 43923 86.6087 70.2681 0002312 95.5514 264.5967 14.72250180372257 IRIDIUM 168 1 43924U 19002C 25349.84771066 .00000291 00000+0 96862-4 0 9992 2 43924 86.3965 70.3138 0002024 101.1150 259.0274 14.34215167362699 IRIDIUM 173 1 43925U 19002D 25349.76526227 .00000267 00000+0 88388-4 0 9998 2 43925 86.3965 70.2451 0002010 101.7881 258.3541 14.34218686362664 IRIDIUM 169 1 43926U 19002E 25349.83368306 .00000379 00000+0 11739-3 0 9998 2 43926 86.4223 101.8679 0002138 126.1152 234.0244 14.38607399363860 IRIDIUM 172 1 43927U 19002F 25349.75891538 .00000246 00000+0 80851-4 0 9993 2 43927 86.3962 70.2549 0001959 94.1967 265.9453 14.34220770362676 IRIDIUM 175 1 43928U 19002G 25349.77740184 .00000884 00000+0 13632-3 0 9996 2 43928 86.1501 12.4753 0003226 89.2333 270.9254 14.72240608372254 IRIDIUM 171 1 43929U 19002H 25349.73989640 .00000226 00000+0 73650-4 0 9992 2 43929 86.3975 70.5493 0002369 99.2171 260.9293 14.34216309362661 IRIDIUM 170 1 43930U 19002J 25349.72034111 .00000903 00000+0 13939-3 0 9992 2 43930 86.6087 70.2691 0002321 90.8988 269.2495 14.72244889372267 IRIDIUM 167 1 43931U 19002K 25349.73355451 .00000183 00000+0 58424-4 0 9996 2 43931 86.3966 70.2865 0002482 104.8465 255.3006 14.34216970362663 IRIDIUM 181 1 56726U 23068S 25349.93820928 .00000407 00000+0 11490-3 0 9997 2 56726 86.4514 133.3899 0002382 84.4613 275.6859 14.43309036136008 IRIDIUM 177 1 56727U 23068T 25349.91943252 .00001277 00000+0 16464-3 0 9994 2 56727 86.1964 55.8198 0002274 85.3650 274.7831 14.80215069139259 IRIDIUM 174 1 56728U 23068U 25349.70796366 .00001134 00000+0 17598-3 0 9995 2 56728 86.6095 70.4035 0002189 88.3165 271.8303 14.72256229139023 IRIDIUM 178 1 56729U 23068V 25349.84090375 .00001259 00000+0 16225-3 0 9992 2 56729 86.6536 102.0032 0002528 97.3192 262.8317 14.80244812139243 IRIDIUM 179 1 56730U 23068W 25349.90315642 .00001448 00000+0 18715-3 0 9994 2 56730 86.6781 110.4099 0002396 88.8509 271.2987 14.80231895139258